Showing default

EXPRESS AM-8, 40895

Orbit data source: Space-Track

EXPRESS AM-8, 40895 is a payload satellite owned by KosSvyaz (CIS) in GEO that was launched on Mon, 14 Sep 2015 UTC via a PROTON-M/DM-3 launch vehicle from the Tyuratam Missile And Space Complex (TTMTR). Payload-class satellites include a variety of spacecraft equipped with specific instruments for various scientific and technological missions. These include communications satellites like Starlink; space stations such as the ISS; scientific satellites like the Hubble; Earth observation satellites from companies like Planet Labs, Umbra, and HawkEye 360; GPS; miniature CubeSats for education and research; and military/defense satellites.

Not visible in the next 10 days
Identifier
40895, 2015-048A
Orbit
GEO
Country
Flag of CISCIS
Related business
Manufacturer
Resehetnev ISS
Mission
Operational Commercial Communications
Bus & Motor
EKSPRESS-1000HTB, AOCS
Mass
2,163 kg wet, ~1,900 kg dry
Launch date (UTC)
2015-09-14 (10 years ago)
Launch vehicle
PROTON-M/DM-3
Launch site
Tyuratam Missile And Space Complex (TTMTR)
Object type
Payload
Rocket body
Debris
Shape & HBR
Box + 2 Pan, 7.5 m
Radar Cross Section
16.987 m², Large (>1 m²)

Expand to show TLE details & history
Last TLE update: 10 hours ago

TLE from 10 hours ago
0 EXPRESS AM-8
1 40895U 15048A   25342.42140972 -.00000109  00000-0  00000-0 0  9990
2 40895   0.0172 302.0846 0000334 237.6063  35.4497  1.00271995 37431
Epoch: 2025-12-08T10:06Z
TLE epoch observation values (Epoch: 2025-12-08T10:06:49.799Z)
Latitude
-0.03424°
Longitude
-13.99067°
Altitude
35,784.887 km
Speed
3.075 km/s
True Right ascension
14h 20m 33s
True Declination
0° 02' 03"
Sunlit
Object was in daylight at epoch
Visualization orbit readout
Latitude
Unknown
Longitude
Unknown
Altitude
Unknown
Speed
Unknown
Apparent Right ascension
Unknown
Apparent Declination
Unknown
Sunlit
N/A
Visualization observer readout
Local Sidereal Time
18:29:36
Azimuth
Unknown
Elevation
Unknown
Doppler factor
Unknown
Orbital elements
Apogee altitude
35,789.015 km
Perigee altitude
35,786.198 km
Semi-major axis
42,165.743 km
Eccentricity
0.00003
Inclination
0.0172°
RAAN
302.0846°
Arg. of periapsis
237.6063°
True anomaly
35.45192°
Mean anomaly
35.4497°
Eccentric anomaly
35.45081°
Mean motion
0.25067 °/min
Orbital period
1,436.15 mins
BSTAR
0
Loading maneuver chart data...
Computing Atmospheric mass density...
Loading historical data...
Loading historical data...
Loading historical data...
Loading historical data...
Loading historical data...
Loading historical data...
Loading historical data...
Other satellites on launch #48 in the year 2015 (2015-09-14 UTC)

Documentation

Showing up to 5 results
|